Probability
1 1 0 0 0 0 0 0 0 0 0 0 0 0 0 0 0 0 0 1 4 9 12 14 14 13 11 11 13 16 16 16 13 11 9 6 4 1 0 0 0 0 0 0 0 0 0 0 0
1 0 0 0 0 0 0 0 0 0 0 0 0 0 0 1 1 1 1 3 8 12 14 15 16 16 15 15 15 17 18 18 16 12 9 6 4 2 1 1 0 0 0 0 0 0 0 0 0
1 0 0 0 0 0 0 0 0 0 0 0 0 0 0 1 2 3 4 8 13 16 16 17 19 20 20 20 20 20 21 21 19 14 10 8 4 3 3 2 1 0 0 0 0 0 0 0 0
1 1 1 0 0 0 0 0 0 0 0 0 0 0 1 2 3 5 10 16 19 19 18 18 20 23 24 22 21 21 22 21 19 15 11 9 5 3 3 3 2 1 1 0 0 0 0 0 0
2 2 1 0 0 0 0 0 0 0 0 0 0 1 2 3 5 9 17 23 23 20 18 18 22 25 25 23 22 22 22 21 18 14 11 8 6 3 3 4 4 3 2 1 0 0 0 0 0
1 1 1 0 0 0 0 0 0 0 0 0 0 1 4 5 8 13 20 23 22 19 17 18 22 25 26 26 25 23 21 20 17 14 11 10 8 6 5 5 5 3 2 1 0 0 0 0 0
1 0 0 0 0 0 0 0 0 0 0 0 1 2 5 6 10 16 21 20 19 16 15 15 17 20 23 24 24 22 20 18 16 14 12 11 10 8 7 6 5 4 2 0 0 0 0 0 0
0 0 0 0 0 0 0 0 0 0 0 0 1 2 4 7 12 17 20 19 16 14 13 13 14 14 16 17 17 17 16 15 13 11 10 9 8 7 7 6 6 5 2 0 0 0 0 0 0
0 0 0 0 0 0 0 0 0 0 0 0 0 2 4 7 11 15 18 17 15 13 12 11 11 11 10 11 11 10 10 10 8 7 6 5 5 4 4 5 5 4 2 0 0 0 0 0 0
0 0 0 0 0 0 0 0 0 0 0 0 1 3 5 7 11 13 14 14 13 12 10 9 9 9 8 8 7 6 5 6 5 4 3 3 3 3 3 3 4 3 1 0 0 0 0 0 0
0 0 0 0 0 0 0 0 0 0 0 0 2 3 5 8 11 12 12 12 11 9 8 7 7 7 7 7 6 4 3 4 4 4 3 3 3 3 3 3 3 3 1 0 0 0 0 0 0
0 0 0 0 0 0 0 0 0 0 0 0 1 3 5 7 9 11 11 11 9 7 6 7 6 5 5 5 4 3 3 4 4 3 3 3 3 3 3 3 3 3 2 1 0 0 0 0 0
0 0 0 0 0 0 0 0 0 0 0 0 1 4 4 5 8 10 11 10 8 6 6 5 4 3 2 2 2 2 3 3 3 3 3 3 3 3 3 3 3 3 2 1 0 0 0 0 0
0 0 0 0 0 0 0 0 0 0 0 1 3 5 5 4 6 10 11 9 7 5 4 3 2 1 1 0 1 1 1 2 2 2 2 3 3 3 3 3 3 3 2 1 0 0 0 0 0
0 0 0 0 0 0 0 0 0 0 1 2 4 6 6 4 5 8 9 7 5 4 3 3 2 1 0 0 0 0 0 2 2 1 1 2 3 3 3 3 3 3 3 1 0 0 0 0 0
0 0 0 0 0 0 0 0 0 0 1 2 4 6 5 4 4 4 4 5 5 4 3 3 2 1 0 0 0 0 0 1 1 1 0 1 2 3 3 3 3 3 3 2 1 0 0 0 0
0 0 0 0 0 0 0 0 0 0 1 3 4 4 4 3 2 1 1 3 4 4 3 3 3 1 1 0 0 0 0 0 0 0 0 0 1 2 3 3 3 3 3 3 1 0 0 0 0
0 0 0 0 0 0 0 0 0 1 2 3 2 2 2 2 1 0 0 1 3 3 3 3 3 3 2 1 0 0 0 0 0 0 0 0 0 1 1 2 3 3 3 3 2 1 0 0 0
0 0 0 0 0 0 0 0 0 1 2 2 1 0 1 1 0 0 0 0 1 3 3 3 3 3 2 1 0 0 0 0 0 0 0 0 0 0 0 1 1 2 3 3 2 1 0 0 0
0 0 0 0 0 0 0 0 0 1 2 1 0 0 0 0 0 0 0 0 1 2 3 3 3 2 1 0 0 0 0 0 0 0 0 0 0 0 0 0 0 1 2 2 2 1 0 0 0
0 0 0 0 0 0 0 0 0 1 1 1 0 0 0 0 0 0 0 0 0 1 3 3 3 2 1 0 0 0 0 0 0 0 0 0 0 0 0 0 0 0 1 1 1 0 0 0 0
0 0 0 0 0 0 0 0 0 0 0 0 0 0 0 0 0 0 0 0 0 1 2 3 3 2 1 0 0 0 0 0 0 0 0 0 0 0 0 0 0 0 0 0 0 0 0 0 0
0 0 0 0 0 0 0 0 0 0 0 0 0 0 0 0 0 0 0 0 0 1 3 3 3 2 1 0 0 0 0 0 0 0 0 0 0 0 0 0 0 0 0 0 0 0 0 0 0
0 0 0 0 0 0 0 0 0 0 0 0 0 0 0 0 0 0 0 0 0 1 2 2 2 1 0 0 0 0 0 0 0 0 0 0 0 0 0 0 0 0 0 0 0 0 0 0 0
0 0 0 0 0 0 0 0 0 0 0 0 0 0 0 0 0 0 0 0 0 1 1 1 1 0 0 0 0 0 0 0 0 0 0 0 0 0 0 0 0 0 0 0 0 0 0 0 0
0 0 0 0 0 0 0 0 0 0 0 0 0 0 0 0 0 0 0 0 0 0 0 0 0 0 0 0 0 0 0 0 0 0 0 0 0 0 0 0 0 0 0 0 0 0 0 0 0
0 0 0 0 0 0 0 0 0 0 0 0 0 0 0 0 0 0 0 0 0 0 0 0 0 0 0 0 0 0 0 0 0 0 0 0 0 0 0 0 0 0 0 0 0 0 0 0 0
0 0 0 0 0 0 0 0 0 0 0 0 0 0 0 0 0 0 0 0 0 0 0 0 0 0 0 0 0 0 0 0 0 0 0 0 0 0 0 0 0 0 0 0 0 0 0 0 0
0 0 0 0 0 0 0 0 0 0 0 0 0 0 0 0 0 0 0 0 0 0 0 0 0 0 0 0 0 0 0 0 0 0 0 0 0 0 0 0 0 0 0 0 0 0 0 0 0
0 0 0 0 0 0 0 0 0 0 0 0 0 0 0 0 0 0 0 0 0 0 0 0 0 0 0 0 0 0 0 0 0 0 0 0 0 0 0 0 0 0 0 0 0 0 0 0 0
Wind_Speed
4 3 3 4 6 4 4 6 3 3 3 3 2 4 6 6 6 4 0 4 7 8 7 10 13 13 13 13 13 12 12 12 12 12 12 12 12 12 11 11 11 12 12 12 13 13 13 13 13
1 2 5 6 5 3 7 5 6 6 4 2 1 2 2 2 1 2 2 3 7 8 7 8 12 13 13 13 13 12 12 12 11 12 12 12 12 12 12 11 11 11 11 12 12 13 12 13 13
2 4 4 4 4 8 7 4 6 3 2 1 1 1 2 2 1 2 2 6 7 7 6 8 13 12 12 13 13 12 12 12 11 11 11 11 11 11 12 12 12 11 11 12 12 12 12 12 12
3 4 5 3 7 7 6 2 2 1 0 1 2 1 1 1 1 2 4 7 8 6 5 7 12 12 12 12 12 12 12 12 11 11 11 10 11 11 12 11 11 11 11 11 11 11 12 12 12
4 4 2 3 7 6 4 3 2 2 1 2 3 2 1 2 1 4 6 7 8 6 4 6 11 11 12 12 11 11 11 11 11 11 11 10 10 11 11 11 11 11 11 11 11 11 11 11 11
4 4 3 7 8 5 4 3 1 2 1 1 4 3 1 1 3 4 6 6 6 6 4 5 10 10 10 11 11 10 11 11 11 10 10 10 11 11 11 11 11 11 11 11 11 11 11 11 11
5 4 5 5 5 5 4 3 3 3 3 4 5 5 1 0 2 4 5 6 5 5 4 3 4 6 9 10 10 9 9 10 10 10 10 9 10 10 11 10 10 10 10 10 10 10 10 11 11
5 4 4 5 5 5 2 2 2 4 4 1 4 6 4 3 4 5 6 5 5 4 4 3 4 4 4 5 8 9 8 8 9 9 9 9 9 9 10 9 9 10 10 9 9 10 10 11 11
3 3 7 8 6 4 1 1 1 1 2 1 1 2 2 6 8 7 5 4 4 3 3 3 4 4 4 4 6 6 7 7 8 7 9 8 4 5 5 7 8 9 9 9 10 10 10 10 9
4 6 10 5 4 3 2 2 1 2 1 0 1 2 4 7 8 8 7 6 5 4 3 3 3 4 4 3 4 3 3 4 4 4 5 4 4 4 5 7 8 8 8 8 9 10 10 7 4
5 8 5 4 3 2 1 1 1 3 2 4 4 4 6 7 6 7 7 6 6 5 3 3 3 4 4 3 3 2 2 3 3 4 5 4 4 3 3 3 4 4 6 4 5 6 4 4 3
4 6 4 4 2 2 2 2 1 3 5 2 4 7 8 8 8 8 7 6 5 5 4 3 3 3 4 3 3 3 3 2 3 3 4 4 3 3 3 2 3 3 2 3 3 3 4 4 4
5 5 4 4 3 3 2 3 2 4 4 1 3 6 7 7 6 5 4 4 4 5 4 4 4 4 4 4 3 3 3 3 3 3 3 4 4 3 3 2 3 3 2 3 3 3 4 4 4
5 4 5 5 4 4 4 4 3 5 2 1 4 5 6 6 5 4 4 4 4 4 4 4 4 4 4 4 3 3 3 3 3 2 3 4 4 4 4 3 3 3 3 3 3 4 4 3 3
2 3 5 4 4 4 2 5 6 5 1 2 3 4 4 4 3 4 4 4 4 4 4 4 4 4 5 4 4 3 3 3 3 2 3 3 4 4 4 3 3 3 3 4 3 4 4 3 3
1 3 5 5 4 3 4 9 4 1 4 3 2 2 2 2 2 2 2 2 2 3 3 3 3 4 4 4 3 3 3 3 2 2 2 3 3 4 4 3 3 3 3 3 4 3 3 3 3
2 4 6 4 3 3 4 6 3 0 3 2 2 1 1 0 1 1 1 1 2 3 3 3 3 4 4 4 3 3 3 3 2 2 2 2 3 4 4 3 3 4 3 3 4 3 3 3 3
5 4 4 4 2 3 4 4 2 2 2 1 0 1 1 0 1 1 1 2 2 2 3 3 3 4 4 3 3 3 2 2 2 2 2 3 3 4 3 3 3 4 4 3 4 4 3 3 3
2 4 5 5 2 2 4 4 2 1 3 2 2 1 1 1 1 2 2 2 3 3 3 3 3 3 4 3 2 2 2 1 1 1 2 3 3 4 4 3 3 4 4 4 5 4 4 3 2
3 4 4 2 1 2 2 3 2 1 2 2 1 1 1 2 3 3 3 3 2 2 2 2 2 3 3 2 2 2 2 1 1 1 2 2 3 4 4 4 3 4 4 4 4 4 3 2 2
5 5 4 3 1 1 1 3 1 1 2 4 3 2 2 1 1 2 2 2 2 1 1 1 1 2 2 3 3 3 2 2 1 1 1 2 3 3 4 4 4 4 4 4 5 5 5 4 2
6 3 3 2 1 2 2 3 2 1 2 4 4 3 3 2 2 1 1 2 1 1 1 1 1 1 2 3 3 4 3 2 2 2 1 1 2 3 4 4 4 4 3 4 5 4 3 5 4
4 2 2 3 3 1 2 2 3 1 2 3 3 3 3 3 2 1 1 1 1 2 1 1 1 1 1 2 3 3 2 2 1 1 1 1 2 2 3 4 4 4 3 4 5 4 4 4 4
1 1 1 1 2 4 4 4 3 1 2 3 3 4 4 4 3 3 3 3 3 3 3 2 2 1 1 2 2 3 3 3 3 2 2 2 2 2 3 4 4 4 4 4 4 5 5 4 4
2 2 1 1 1 4 3 3 2 2 2 1 2 3 4 4 3 3 4 3 3 3 3 2 2 2 1 1 2 3 3 3 4 3 3 3 2 2 3 4 4 4 4 4 4 4 5 5 5
2 3 3 3 3 2 2 3 1 2 4 3 3 3 4 5 5 4 3 3 3 2 2 2 2 2 1 1 0 1 2 2 2 2 2 2 2 2 2 3 4 4 4 4 4 4 4 4 5
1 1 1 2 0 0 1 1 3 5 7 7 6 6 5 5 5 5 5 4 3 3 3 2 2 2 2 1 1 1 1 2 2 2 2 2 2 1 2 3 4 4 4 5 5 4 4 5 5
1 1 2 2 2 2 1 1 2 5 6 7 6 6 5 5 5 6 5 5 4 3 3 3 2 2 2 2 1 1 1 1 1 2 2 2 2 2 2 3 3 4 4 4 5 4 4 5 4
5 2 1 1 1 2 1 2 2 2 3 4 5 5 4 5 5 5 5 5 5 4 4 3 3 3 3 2 1 1 1 1 1 2 2 2 2 3 3 3 4 4 4 5 5 5 5 5 5
3 2 1 2 1 1 2 2 4 3 3 4 5 5 5 5 4 5 5 5 5 5 5 4 3 3 3 3 2 1 1 1 1 1 2 2 3 3 3 3 4 4 4 5 5 6 6 6 6
Wind_Direction
1 46 65 58 57 54 232 234 214 217 223 218 176 161 169 169 169 195 176 136 132 142 155 155 151 149 146 142 138 134 130 127 125 124 124 124 122 121 118 115 113 109 106 102 100 97 95 95 95
36 63 56 64 108 202 250 229 214 214 202 146 116 128 141 214 214 126 136 156 141 143 149 152 149 149 147 144 141 138 136 132 128 126 126 123 120 120 118 116 114 110 107 104 101 98 97 98 96
62 58 87 91 161 201 224 222 217 239 228 161 129 139 170 200 174 181 185 153 137 139 143 153 150 148 148 144 142 141 138 135 130 126 124 124 122 121 118 116 114 111 108 105 102 100 100 100 97
74 52 61 111 223 225 218 223 200 223 221 170 149 161 256 330 219 185 141 139 134 132 137 153 151 150 148 145 143 142 140 136 133 130 127 126 125 124 120 118 114 110 107 105 102 101 102 101 100
62 85 105 234 239 245 241 246 219 195 206 183 154 164 272 350 53 117 127 132 135 131 134 150 150 151 149 147 144 142 142 140 138 134 131 129 128 126 122 119 116 113 110 106 105 103 105 103 102
68 84 154 228 240 254 250 226 193 211 223 173 152 154 227 28 101 124 124 126 131 130 129 141 147 146 147 147 143 142 141 142 140 136 133 127 123 121 121 120 119 116 113 110 106 104 104 102 100
125 137 204 221 239 251 237 190 184 197 213 210 167 149 233 162 134 121 116 113 111 114 112 112 128 137 142 144 142 140 139 138 136 132 126 120 118 118 120 120 120 118 115 112 108 107 104 101 98
139 136 209 220 219 239 225 194 204 189 216 184 147 158 205 196 138 112 102 100 103 102 103 106 106 108 119 132 136 134 132 130 129 124 117 112 111 115 114 113 117 117 115 112 109 110 106 100 98
113 144 220 216 204 229 219 190 288 159 132 120 197 199 205 132 126 119 109 104 115 112 99 103 102 101 107 116 124 124 123 123 120 117 113 106 100 105 107 109 111 112 115 113 112 112 106 97 94
148 207 226 212 196 201 213 193 224 100 102 165 341 27 101 126 139 143 149 158 158 156 137 116 115 113 110 110 108 108 105 108 110 111 111 104 99 97 99 104 106 104 104 109 111 109 102 89 81
188 219 230 229 221 209 216 221 264 150 214 209 194 170 140 142 153 160 166 168 170 164 152 142 132 123 118 112 111 104 103 104 106 113 116 110 99 93 87 90 92 91 92 89 96 91 84 85 88
216 239 230 236 226 226 221 206 235 204 224 215 185 162 157 162 175 179 179 177 166 159 167 155 136 126 122 116 116 118 118 119 123 125 128 123 115 108 107 101 98 90 92 94 91 95 94 88 86
235 247 245 251 259 245 256 245 226 260 270 278 140 153 170 176 184 187 179 170 165 168 170 163 144 141 132 124 122 119 123 128 134 133 133 134 132 133 125 119 111 105 101 107 107 106 103 97 90
233 249 256 254 248 243 229 263 244 260 265 139 142 169 178 180 180 169 167 175 183 184 179 165 154 151 137 132 129 130 130 127 125 131 139 139 139 143 139 132 125 120 117 117 118 115 112 102 98
253 267 277 249 229 228 208 272 241 252 158 155 171 186 184 184 175 184 183 180 181 184 177 167 161 145 141 135 133 134 137 131 133 136 137 141 140 143 142 140 134 132 126 120 112 103 99 97 92
233 237 251 249 214 212 178 248 269 242 165 189 193 190 186 191 191 194 175 169 158 155 163 167 154 143 142 134 132 129 134 132 135 134 134 140 140 144 141 142 142 138 131 128 125 121 109 98 92
216 231 237 266 211 164 182 243 285 46 140 192 205 180 158 98 31 24 94 135 146 152 148 149 142 145 143 130 121 115 120 127 132 131 136 145 142 146 144 145 144 139 133 132 133 123 124 121 108
222 231 236 240 238 156 204 245 311 5 110 147 110 106 134 137 287 7 56 83 102 121 124 132 130 129 129 120 106 96 94 107 121 137 148 147 147 147 143 143 145 142 136 136 135 132 116 119 120
219 225 248 251 224 190 218 250 281 348 70 61 34 28 324 265 335 40 56 67 69 72 94 120 127 133 133 131 136 133 137 137 136 152 152 155 153 150 148 147 147 150 152 153 148 136 131 121 124
251 249 242 266 191 194 219 256 273 112 116 121 89 35 353 354 9 22 37 48 67 82 89 117 137 144 152 152 146 139 132 135 145 150 145 156 162 162 161 154 157 161 154 151 156 145 140 134 149
254 229 227 231 332 191 155 289 288 328 56 47 43 38 25 16 344 0 25 34 44 50 95 138 149 145 150 141 119 100 82 72 82 129 165 174 171 170 165 165 161 166 165 168 171 165 156 156 165
254 244 231 227 195 259 185 251 278 280 20 21 6 2 351 340 341 5 20 22 13 342 16 96 127 139 142 140 151 157 163 176 191 186 185 174 175 176 174 170 166 168 170 171 178 175 168 159 167
254 274 238 212 197 244 225 213 291 30 358 331 334 341 343 340 336 345 349 353 5 10 29 58 105 116 135 150 164 168 174 176 153 142 167 185 184 184 183 176 172 175 178 178 177 174 174 170 168
282 22 62 95 137 235 221 179 293 348 294 318 335 349 353 355 0 9 12 31 25 23 30 36 59 65 120 155 171 178 178 169 163 177 188 198 192 189 196 187 185 182 178 182 185 182 181 181 171
55 81 37 353 225 240 154 149 250 325 13 12 349 352 359 6 17 22 23 24 20 20 22 25 38 29 40 146 186 193 189 182 188 196 198 201 199 201 204 199 193 187 183 180 180 181 185 182 178
252 163 174 209 216 271 132 192 242 1 18 18 25 28 20 14 11 11 16 20 18 14 16 23 23 15 13 18 228 201 183 182 197 202 202 207 213 216 201 198 197 189 181 179 177 185 191 184 186
336 237 211 141 48 210 239 324 327 2 12 14 17 21 15 8 8 6 10 12 13 7 1 4 9 3 358 346 320 214 187 188 194 199 202 211 215 213 194 198 201 193 185 182 178 187 193 185 191
93 153 84 142 169 221 284 324 315 341 345 355 2 2 1 5 6 7 8 6 4 0 358 9 10 352 343 345 332 305 257 216 197 189 202 208 210 210 199 197 199 197 190 185 183 186 191 187 193
12 26 63 141 157 166 210 282 333 309 324 335 344 357 358 358 359 3 4 1 3 6 8 7 5 356 350 342 335 330 298 252 216 210 215 216 216 210 213 208 198 198 196 189 187 192 189 194 195
46 37 75 143 253 134 143 275 352 7 5 1 352 357 358 4 6 5 2 3 7 7 3 359 352 348 341 333 325 306 297 272 242 249 240 220 219 218 217 213 201 203 200 192 192 196 195 197 199